Theta_e
318 317 316 316 317 323 343 344 344 343 342 343 345 344 344 345 341 339 339 338 335 337 332 339 335 342 332 335 332 330 329 328
317 316 317 317 316 319 341 345 345 343 341 341 343 341 342 341 341 337 339 337 335 333 331 332 331 330 329 328 328 329 329 331
318 319 319 319 317 319 336 345 345 343 339 341 341 340 340 340 339 339 338 337 332 331 329 331 331 331 329 329 330 330 331 330
317 318 318 317 320 320 331 340 344 343 340 340 341 341 340 339 339 340 339 336 331 333 333 330 329 328 328 328 327 327 327 327
317 317 317 320 321 322 332 338 340 341 340 337 341 342 341 339 338 340 339 335 332 334 331 330 330 330 329 329 328 328 327 327
318 318 319 321 320 322 329 341 341 340 338 340 341 342 340 339 336 339 338 335 335 334 330 329 330 330 329 328 326 325 326 325
317 320 318 318 321 324 332 339 342 342 341 339 342 340 336 334 333 333 337 337 338 333 331 329 330 330 329 328 327 325 323 324
316 320 321 321 322 327 331 336 342 344 344 341 341 338 334 334 332 332 334 336 337 333 331 329 330 329 327 326 325 324 324 323
316 320 320 319 330 332 336 340 343 345 343 340 336 333 332 333 332 334 335 335 335 332 330 329 329 327 326 326 324 323 322 323
316 316 317 323 326 333 337 343 344 343 342 338 336 331 332 332 331 331 332 332 331 330 328 327 327 326 325 324 322 320 320 321
312 313 314 327 329 334 337 342 341 341 340 339 334 330 329 327 328 330 331 332 333 331 329 328 326 325 323 322 322 320 317 318
314 313 322 327 330 333 335 341 340 341 338 334 329 326 324 326 326 329 331 331 331 331 329 328 326 325 323 323 324 321 318 316
313 314 327 329 330 332 337 339 337 336 333 331 327 324 326 327 328 328 329 327 328 330 328 326 325 324 324 323 323 322 321 317
315 327 329 329 333 334 337 335 333 333 331 330 328 326 326 324 326 326 326 325 327 327 328 325 325 325 324 324 324 323 321 321
324 325 327 329 331 333 333 331 328 331 332 328 330 325 326 325 324 324 324 324 324 325 325 323 324 326 326 325 323 323 324 322
323 325 327 329 331 331 330 328 328 329 328 329 329 327 325 326 325 325 325 324 325 324 325 326 327 328 328 326 324 324 324 322
323 323 326 329 329 328 328 328 327 328 327 329 328 327 327 326 326 325 324 325 325 326 325 326 328 328 328 326 324 322 324 322
322 323 326 328 328 328 328 327 327 327 329 328 327 328 328 327 326 324 325 324 325 325 325 327 328 327 328 325 323 326 327 325
321 324 326 327 327 328 327 326 327 326 328 326 327 328 328 325 325 327 324 323 327 325 326 327 328 326 326 324 323 325 326 326
323 325 325 325 326 326 325 325 326 325 328 327 328 328 325 325 324 325 324 321 322 324 326 330 328 328 325 324 325 327 326 323
Wind_Speed
1 3 5 7 7 7 16 15 15 16 13 10 8 8 8 8 10 8 7 7 5 4 3 4 4 10 4 7 6 5 5 5
7 7 8 8 8 4 19 18 15 16 11 10 11 10 9 8 9 11 8 5 5 5 4 5 5 4 5 4 4 5 7 8
9 10 9 10 9 7 14 17 17 16 14 11 11 10 10 10 10 11 8 6 5 4 4 3 4 5 5 5 5 6 8 7
7 9 11 9 8 8 10 18 18 16 14 13 11 10 11 10 9 10 11 7 5 4 4 4 4 5 5 3 3 3 3 3
11 11 12 9 7 8 11 16 16 17 16 11 10 9 11 10 7 11 11 8 6 5 4 3 4 3 4 2 2 1 2 3
10 11 7 9 8 9 8 11 15 14 12 6 8 8 9 9 7 8 11 8 8 5 4 3 3 4 3 2 2 3 4 4
9 10 11 11 10 9 9 11 15 13 8 7 6 8 6 6 6 6 10 9 7 6 4 4 3 4 3 3 3 4 3 4
10 10 9 9 6 6 8 8 11 11 7 6 4 5 5 5 5 5 8 7 8 6 3 4 4 4 3 3 5 4 4 4
8 6 9 5 3 7 10 11 11 11 9 8 4 5 4 4 3 7 7 6 6 6 4 4 4 4 4 5 4 5 4 3
9 9 8 9 9 8 8 10 13 8 9 4 4 5 3 4 5 5 8 8 7 6 5 4 5 3 5 4 4 2 3 4
10 10 8 9 8 9 10 9 9 8 9 6 5 5 4 3 1 3 4 7 7 6 4 4 3 3 3 3 3 5 3 2
13 10 7 11 8 8 10 9 9 9 9 7 8 5 4 3 4 3 5 7 6 6 5 5 4 2 4 3 3 3 3 4
12 8 13 11 9 8 8 10 9 9 8 8 6 6 4 3 4 8 5 5 6 6 6 4 4 3 3 4 3 4 4 4
6 15 16 12 11 9 10 9 7 8 8 8 9 8 5 6 5 5 4 3 3 2 3 3 4 3 4 4 4 5 5 4
18 19 15 14 13 12 9 9 8 8 9 8 8 8 8 8 6 5 6 3 1 3 2 2 3 4 5 4 4 4 4 3
13 13 14 14 14 11 9 10 8 9 9 8 7 8 5 4 4 4 4 3 4 3 3 4 4 4 4 3 2 4 4 3
15 12 13 14 13 10 10 10 8 8 8 7 7 6 8 6 6 4 3 5 3 4 4 3 3 2 3 3 3 3 3 2
13 11 13 12 11 11 10 9 8 7 8 7 6 7 7 6 6 5 5 4 2 6 4 3 2 2 2 3 2 3 4 2
13 13 13 11 10 11 10 8 8 8 7 6 7 7 7 6 6 5 5 3 5 5 5 4 3 2 4 3 2 2 4 2
15 16 13 12 12 10 9 8 8 8 7 7 6 6 7 6 5 6 5 4 3 4 3 4 3 4 3 3 3 3 1 5
Wind_Direction
73 326 292 264 248 152 177 176 182 178 185 176 181 184 177 179 188 188 189 196 209 209 195 171 191 197 201 221 233 225 211 220
212 234 249 261 257 213 173 178 178 183 182 181 178 180 180 180 190 190 182 197 197 199 189 186 187 179 199 208 207 207 219 234
230 215 231 241 234 220 170 173 178 184 186 180 176 181 175 174 185 190 186 186 187 198 221 172 180 173 188 203 212 208 213 230
245 234 234 234 211 209 164 176 182 182 186 179 176 175 169 176 183 184 185 175 174 185 204 197 184 180 174 182 208 166 177 210
244 236 226 188 199 211 169 176 181 183 188 171 174 170 166 175 174 175 172 164 167 175 178 175 192 195 179 165 210 197 206 242
262 256 200 199 193 199 186 177 177 182 182 158 159 156 165 170 145 160 165 155 164 178 193 205 190 177 163 174 208 230 228 229
266 240 224 211 204 203 182 167 172 173 152 147 144 144 136 140 133 142 155 172 166 167 187 197 172 156 170 192 219 195 216 238
240 255 232 228 234 206 184 159 159 154 135 119 105 115 123 115 139 172 167 160 168 179 178 202 153 160 201 211 215 220 203 213
237 226 242 260 164 158 169 145 151 145 150 150 138 137 133 114 133 154 159 156 166 165 165 157 168 186 215 218 211 221 237 218
236 248 239 180 163 140 131 132 148 143 150 123 124 133 134 128 143 178 148 151 154 145 162 174 183 207 240 251 214 192 211 180
234 234 202 142 141 136 121 125 130 118 126 117 96 93 60 82 128 144 157 133 122 143 167 167 202 197 225 232 191 176 197 242
244 232 147 146 148 124 115 119 123 126 129 123 137 135 139 171 156 135 134 136 145 162 162 178 205 184 198 211 201 192 166 208
222 186 133 123 115 115 114 121 115 125 126 125 125 121 135 123 124 119 125 121 135 167 180 178 177 186 204 202 206 196 189 176
117 113 118 120 113 107 116 115 114 114 120 124 124 109 138 113 117 118 127 125 151 170 195 177 186 190 210 218 218 205 205 196
122 126 129 126 122 119 118 114 115 109 114 117 100 114 111 118 134 138 133 126 169 228 171 129 173 203 213 201 198 215 220 202
112 122 124 128 124 122 120 121 121 110 116 114 114 114 115 116 103 120 141 155 174 191 176 190 198 208 215 196 214 228 238 227
122 122 123 125 128 128 121 129 121 118 124 121 119 100 93 100 97 110 129 133 159 172 188 189 214 204 205 192 191 205 230 225
126 121 122 128 131 128 123 125 129 133 130 130 131 128 121 127 116 131 128 150 176 161 186 193 215 171 92 169 193 235 216 206
132 125 128 134 127 131 132 132 133 138 134 139 143 134 133 124 135 134 139 178 173 175 206 187 163 84 107 126 140 239 198 186
129 131 135 130 134 128 130 132 132 149 140 143 133 118 116 121 125 133 156 162 192 208 234 176 142 121 116 129 153 207 36 60